Home   Weather   Liepāja   Past weeks

Flag for Latvia Past Weather in Liepāja, Latvia — Yesterday and Last 2 Weeks

39 °F

Low clouds.

Feels Like: 34 °F
Forecast: 42 / 46 °F
Wind: 8 mph from East

Location: Liepaja International Airport

Current Time: Oct 25, 2016 at 8:09:17 AM

Latest Report: Oct 25, 2016 at 7:20 AM

Visibility: 4 mi

Pressure: 30.12 "Hg

Humidity: 93%

Dew Point: 37 °F

Location of LiepājaLocation

Past Weather in Liepāja — Graph


Liepāja Temperature Yesterday

Maximum temperature yesterday: 43 °F (at 1:50 AM)
Minimum temperature yesterday: 36 °F (at 10:50 PM)
Average temperature yesterday: 41 °F

High & Low Weather Summary for the Past Weeks

High50 °F (Oct 13, 2:50 PM)100% (Oct 10, 9:20 AM)30.63 "Hg (Oct 10, 9:20 AM)
Low30 °F (Oct 16, 9:20 PM)50% (Oct 17, 2:20 PM)30.12 "Hg (Oct 19, 4:50 PM)
Average40 °F84%30.33 "Hg
* Reported Oct 10 6:20 AM — Oct 25 6:50 AM, Liepāja, Weather by CustomWeather, © 2016

Note: Actual official high and low records may vary slightly from our data, if they occured in-between our weather recording intervals... More about our weather records


Liepāja Weather History for the Previous 24 Hours

Scroll right to see more
Time TempWeatherWind HumidityBarometerVisibility
6:50 AM
Tue, Oct 25
37 °FLow clouds.7 mph100%30.12 "Hg4 mi
6:20 AM37 °FLow clouds.7 mph100%30.12 "Hg4 mi
5:50 AM37 °FLow clouds.8 mph100%30.15 "Hg4 mi
5:20 AM37 °FLow clouds.8 mph100%30.15 "Hg2 mi
4:50 AM37 °FLow clouds.9 mph100%30.15 "Hg6 mi
4:20 AM37 °FLow clouds.9 mph100%30.15 "Hg6 mi
3:50 AM37 °FLow clouds.8 mph93%30.15 "Hg4 mi
3:20 AM37 °FLow clouds.9 mph93%30.15 "Hg3 mi
2:50 AM37 °FLow clouds.10 mph93%30.18 "Hg5 mi
2:20 AM37 °FLow clouds.9 mph93%30.18 "HgN/A
1:50 AM37 °FLow clouds.10 mph93%30.18 "HgN/A
1:20 AM37 °FLow clouds.10 mph93%30.21 "Hg6 mi
12:50 AM37 °FLow clouds.10 mph93%30.21 "Hg4 mi
12:20 AM36 °FLow clouds.12 mph100%30.21 "Hg4 mi
11:50 PM
Mon, Oct 24
36 °FLow clouds.12 mph100%30.21 "Hg5 mi
11:20 PM37 °FLow clouds.13 mph93%30.21 "Hg6 mi
10:50 PM36 °FLow clouds.13 mph93%30.24 "HgN/A
10:20 PM37 °FLow clouds.12 mph87%30.24 "HgN/A
9:50 PM37 °FLow clouds.13 mph87%30.24 "HgN/A
9:20 PM37 °FLow clouds.12 mph87%30.24 "HgN/A
8:50 PM37 °FLow clouds.13 mph93%30.24 "HgN/A
8:20 PM37 °FOvercast.13 mph93%30.27 "HgN/A
7:50 PM37 °FMostly cloudy.13 mph93%30.27 "HgN/A
7:20 PM37 °FMostly cloudy.14 mph93%30.27 "HgN/A
6:50 PM37 °FMostly cloudy.13 mph93%30.27 "HgN/A
6:20 PM39 °FMostly cloudy.13 mph87%30.27 "HgN/A
5:50 PM41 °FMostly cloudy.13 mph87%30.27 "Hg6 mi
5:20 PM41 °FMostly cloudy.12 mph87%30.27 "HgN/A
4:50 PM41 °FMore clouds than sun.13 mph87%30.27 "HgN/A
4:20 PM41 °FOvercast.13 mph87%30.27 "HgN/A
3:50 PM43 °FOvercast.15 mph81%30.30 "HgN/A
3:20 PM43 °FOvercast.14 mph81%30.30 "HgN/A
2:50 PM43 °FOvercast.14 mph81%30.30 "HgN/A
2:20 PM43 °FOvercast.13 mph81%30.30 "HgN/A
1:50 PM43 °FOvercast.14 mph81%30.30 "HgN/A
1:20 PM43 °FOvercast.14 mph81%30.30 "HgN/A
12:50 PM43 °FOvercast.15 mph81%30.30 "HgN/A
12:20 PM43 °FOvercast.14 mph81%30.30 "HgN/A
11:50 AM43 °FOvercast.14 mph81%30.33 "HgN/A
11:20 AM43 °FOvercast.14 mph81%30.33 "HgN/A
10:50 AM43 °FOvercast.14 mph81%30.33 "HgN/A
10:20 AM41 °FOvercast.14 mph87%30.33 "HgN/A
9:50 AM41 °FOvercast.16 mph87%30.33 "HgN/A
9:20 AM43 °FOvercast.13 mph81%30.33 "HgN/A
8:50 AM43 °FOvercast.14 mph81%30.33 "HgN/A
8:20 AM43 °FOvercast.13 mph81%30.33 "HgN/A
Weather by CustomWeather, © 2016

See weather overviewHow to use our weather pages